This is the latest recevied weather packets stored in our database for station/object AB4KN. If no packets are shown the sender has not sent any weather packets the latest 1 day(s).
| Time | Temp. | Humidity | Pressure | Rain* | Wind** | Luminosity | Snow |
|---|---|---|---|---|---|---|---|
| 1778003323 | 25° C | 40% | 1021.1 hPa | 0 mm | 0.89 m/s, 238° | 716 W/m² | - |
| 1778003021 | 24.44° C | 40% | 1021.2 hPa | 0 mm | 1.34 m/s, 107° | 729 W/m² | - |
| 1778002716 | 24.44° C | 40% | 1021.3 hPa | 0 mm | 2.24 m/s, 173° | 753 W/m² | - |
| 1778002413 | 24.44° C | 40% | 1021.4 hPa | 0 mm | 1.34 m/s, 256° | 752 W/m² | - |
| 1778002110 | 25° C | 38% | 1021.2 hPa | 0 mm | 0.89 m/s, 235° | 751 W/m² | - |
| 1778001808 | 23.89° C | 40% | 1021.2 hPa | 0 mm | 1.34 m/s, 272° | 779 W/m² | - |
| 1778001507 | 24.44° C | 41% | 1021.3 hPa | 0 mm | 1.79 m/s, 267° | 770 W/m² | - |
| 1778001205 | 23.89° C | 40% | 1021.5 hPa | 0 mm | 2.24 m/s, 111° | 760 W/m² | - |
| 1778000901 | 23.89° C | 40% | 1021.4 hPa | 0 mm | 1.34 m/s, 171° | 737 W/m² | - |
| 1778000598 | 23.89° C | 42% | 1021.5 hPa | 0 mm | 0.89 m/s, 191° | 764 W/m² | - |
| 1778000293 | 23.89° C | 42% | 1021.6 hPa | 0 mm | 0.89 m/s, 178° | 780 W/m² | - |
| 1777999989 | 23.89° C | 42% | 1021.8 hPa | 0 mm | 1.34 m/s, 188° | 796 W/m² | - |
| 1777999685 | 23.33° C | 42% | 1021.4 hPa | 0 mm | 1.34 m/s, 98° | 785 W/m² | - |
| 1777999382 | 23.89° C | 43% | 1021.6 hPa | 0 mm | 1.34 m/s, 224° | 797 W/m² | - |
| 1777999080 | 23.89° C | 43% | 1021.5 hPa | 0 mm | 1.79 m/s, 241° | 776 W/m² | - |
| 1777998779 | 23.89° C | 45% | 1021.5 hPa | 0 mm | 0.89 m/s, 189° | 796 W/m² | - |
| 1777998476 | 23.89° C | 45% | 1021.5 hPa | 0 mm | 1.34 m/s, 211° | 806 W/m² | - |
| 1777998173 | 23.33° C | 44% | 1021.5 hPa | 0 mm | 0 m/s | 823 W/m² | - |
| 1777997870 | 22.78° C | 47% | 1021.5 hPa | 0 mm | 1.34 m/s, 227° | 819 W/m² | - |
| 1777997567 | 23.33° C | 47% | 1021.6 hPa | 0 mm | 1.79 m/s, 220° | 827 W/m² | - |
| 1777997264 | 22.78° C | 48% | 1021.8 hPa | 0 mm | 0.45 m/s, 251° | 819 W/m² | - |
| 1777996962 | 22.78° C | 48% | 1021.5 hPa | 0 mm | 0.89 m/s, 259° | 737 W/m² | - |
| 1777996658 | 22.78° C | 48% | 1021.9 hPa | 0 mm | 1.79 m/s, 255° | 189 W/m² | - |
| 1777996354 | 22.78° C | 49% | 1022.1 hPa | 0 mm | 1.79 m/s, 106° | 287 W/m² | - |
| 1777996051 | 22.22° C | 49% | 1022.1 hPa | 0 mm | 1.34 m/s, 180° | 140 W/m² | - |
* Rain latest hour (hover to see other rain measurements)
** Current wind speed in m/s (hover to see current wind gust speed)